• In Deutschland
  • Länderverzeichnis
  • Für 7 Tage
  • Wassertemperatur
  • Satellitenkarten
  • Wetterkarte
  • Widgets
  • user-avatar
    Anmelden

    Stündliche Wetter Satif

    Heute, 29 April, Samstag

    Zeit Temperatur Niederschläge Wind Luftdruck Luftfeuchtigkeit
    00:00 +9°C° 0 mm 1 m/S 669 mmHg 92%
    01:00 +9°C° 0 mm 1 m/S 669 mmHg 92%
    02:00 +9°C° 0 mm 1 m/S 668 mmHg 92%
    03:00 +9°C° 0 mm 1 m/S 668 mmHg 93%
    04:00 +9°C° 0 mm 1 m/S 668 mmHg 91%
    05:00 +9°C° 0 mm 1 m/S 669 mmHg 90%
    06:00 +9°C° 0 mm 1 m/S 669 mmHg 89%
    07:00 +11°C° 0 mm 1 m/S 669 mmHg 80%
    08:00 +13°C° 0 mm 1 m/S 670 mmHg 71%
    09:00 +15°C° 0 mm 1 m/S 670 mmHg 62%
    10:00 +18°C° 0 mm 1 m/S 671 mmHg 54%
    11:00 +20°C° 0 mm 1 m/S 671 mmHg 47%
    12:00 +21°C° 0 mm 2 m/S 672 mmHg 39%
    13:00 +21°C° 0 mm 2 m/S 671 mmHg 40%
    14:00 +21°C° 0 mm 3 m/S 671 mmHg 40%
    15:00 +21°C° 0 mm 3 m/S 671 mmHg 40%
    16:00 +19°C° 0,2 mm 2 m/S 670 mmHg 50%
    17:00 +17°C° 0,2 mm 2 m/S 670 mmHg 59%
    18:00 +15°C° 0,2 mm 1 m/S 669 mmHg 69%
    19:00 +14°C° 0,4 mm 1 m/S 669 mmHg 75%
    20:00 +12°C° 0,4 mm 1 m/S 669 mmHg 82%
    21:00 +11°C° 0,4 mm 1 m/S 669 mmHg 88%
    22:00 +11°C° 0,2 mm 1 m/S 669 mmHg 89%
    23:00 +10°C° 0,2 mm 1 m/S 669 mmHg 90%

    Morgen, 30 April, Sonntag

    Zeit Temperatur Niederschläge Wind Luftdruck Luftfeuchtigkeit
    00:00 +10°C° 0,2 mm 1 m/S 669 mmHg 91%
    01:00 +10°C° 0,1 mm 1 m/S 669 mmHg 91%
    02:00 +10°C° 0,1 mm 1 m/S 669 mmHg 91%
    03:00 +10°C° 0,1 mm 1 m/S 668 mmHg 90%
    04:00 +11°C° 0,2 mm 1 m/S 669 mmHg 87%
    05:00 +12°C° 0,2 mm 1 m/S 669 mmHg 84%
    06:00 +13°C° 0,2 mm 1 m/S 670 mmHg 81%
    07:00 +15°C° 0,1 mm 1 m/S 670 mmHg 73%
    08:00 +18°C° 0,1 mm 1 m/S 671 mmHg 65%
    09:00 +19°C° 0,1 mm 1 m/S 672 mmHg 57%
    10:00 +19°C° 0,1 mm 2 m/S 672 mmHg 52%
    11:00 +20°C° 0,1 mm 2 m/S 672 mmHg 48%
    12:00 +21°C° 0,1 mm 2 m/S 672 mmHg 44%
    13:00 +21°C° 0,3 mm 2 m/S 671 mmHg 46%
    14:00 +21°C° 0,3 mm 3 m/S 671 mmHg 48%
    15:00 +20°C° 0,3 mm 3 m/S 671 mmHg 50%
    16:00 +19°C° 0,5 mm 2 m/S 671 mmHg 59%
    17:00 +17°C° 0,5 mm 2 m/S 671 mmHg 69%
    18:00 +15°C° 0,5 mm 2 m/S 670 mmHg 78%
    19:00 +14°C° 0 mm 2 m/S 670 mmHg 83%
    20:00 +12°C° 0 mm 1 m/S 671 mmHg 88%
    21:00 +10°C° 0 mm 1 m/S 671 mmHg 93%
    22:00 +10°C° 0 mm 1 m/S 671 mmHg 93%
    23:00 +10°C° 0 mm 1 m/S 671 mmHg 93%

    übermorgen, 1 Mai, Montag

    Zeit Temperatur Niederschläge Wind Luftdruck Luftfeuchtigkeit
    00:00 +9°C° 0 mm 1 m/S 670 mmHg 93%
    01:00 +9°C° 0 mm 1 m/S 670 mmHg 94%
    02:00 +9°C° 0 mm 1 m/S 670 mmHg 94%
    03:00 +9°C° 0 mm 1 m/S 670 mmHg 94%
    04:00 +10°C° 0 mm 1 m/S 671 mmHg 92%
    05:00 +10°C° 0 mm 1 m/S 671 mmHg 90%
    06:00 +11°C° 0 mm 1 m/S 672 mmHg 88%
    07:00 +13°C° 0 mm 1 m/S 673 mmHg 79%
    08:00 +15°C° 0 mm 2 m/S 673 mmHg 70%
    09:00 +16°C° 0 mm 2 m/S 674 mmHg 62%
    10:00 +18°C° 0 mm 2 m/S 674 mmHg 55%
    11:00 +19°C° 0 mm 2 m/S 674 mmHg 48%
    12:00 +20°C° 0 mm 2 m/S 675 mmHg 41%
    13:00 +20°C° 0 mm 2 m/S 674 mmHg 43%
    14:00 +20°C° 0 mm 2 m/S 674 mmHg 44%
    15:00 +20°C° 0 mm 3 m/S 674 mmHg 45%
    16:00 +18°C° 0 mm 3 m/S 674 mmHg 54%
    17:00 +16°C° 0 mm 3 m/S 673 mmHg 63%
    18:00 +14°C° 0 mm 3 m/S 673 mmHg 71%
    19:00 +14°C° 0 mm 2 m/S 674 mmHg 78%
    20:00 +12°C° 0 mm 2 m/S 674 mmHg 85%
    21:00 +10°C° 0 mm 2 m/S 674 mmHg 92%
    22:00 +10°C° 0 mm 2 m/S 674 mmHg 93%
    23:00 +9°C° 0 mm 2 m/S 674 mmHg 94%

    2 Mai, Dienstag

    Zeit Temperatur Niederschläge Wind Luftdruck Luftfeuchtigkeit
    00:00 +10°C° 0 mm 1 m/S 673 mmHg 95%
    01:00 +10°C° 0 mm 1 m/S 673 mmHg 94%
    02:00 +10°C° 0 mm 1 m/S 673 mmHg 93%
    03:00 +10°C° 0 mm 1 m/S 673 mmHg 92%
    04:00 +10°C° 0 mm 1 m/S 673 mmHg 90%
    05:00 +10°C° 0 mm 1 m/S 673 mmHg 88%
    06:00 +11°C° 0 mm 1 m/S 674 mmHg 87%
    07:00 +13°C° 0 mm 1 m/S 674 mmHg 78%
    08:00 +14°C° 0 mm 1 m/S 675 mmHg 69%
    09:00 +16°C° 0 mm 1 m/S 676 mmHg 61%
    10:00 +17°C° 0,1 mm 2 m/S 676 mmHg 58%
    11:00 +18°C° 0,1 mm 2 m/S 675 mmHg 54%
    12:00 +19°C° 0,1 mm 2 m/S 675 mmHg 51%
    13:00 +19°C° 0,2 mm 2 m/S 675 mmHg 51%
    14:00 +20°C° 0,2 mm 3 m/S 675 mmHg 50%
    15:00 +20°C° 0,2 mm 3 m/S 674 mmHg 50%
    16:00 +18°C° 0,3 mm 2 m/S 674 mmHg 57%
    17:00 +17°C° 0,3 mm 2 m/S 673 mmHg 65%
    18:00 +15°C° 0,3 mm 1 m/S 673 mmHg 73%
    19:00 +14°C° 0,2 mm 1 m/S 673 mmHg 78%
    20:00 +12°C° 0,2 mm 1 m/S 673 mmHg 82%
    21:00 +11°C° 0,2 mm 1 m/S 673 mmHg 87%
    22:00 +11°C° 0,3 mm 1 m/S 672 mmHg 87%
    23:00 +11°C° 0,3 mm 1 m/S 672 mmHg 87%

    3 Mai, Mittwoch

    Zeit Temperatur Niederschläge Wind Luftdruck Luftfeuchtigkeit
    00:00 +11°C° 0,3 mm 1 m/S 672 mmHg 88%
    01:00 +11°C° 0,1 mm 1 m/S 672 mmHg 86%
    02:00 +10°C° 0,1 mm 2 m/S 671 mmHg 84%
    03:00 +10°C° 0,1 mm 2 m/S 671 mmHg 83%
    04:00 +12°C° 0 mm 2 m/S 672 mmHg 79%
    05:00 +12°C° 0 mm 2 m/S 672 mmHg 76%
    06:00 +13°C° 0 mm 2 m/S 672 mmHg 73%
    07:00 +14°C° 0 mm 3 m/S 673 mmHg 64%
    08:00 +18°C° 0 mm 3 m/S 673 mmHg 54%
    09:00 +20°C° 0 mm 4 m/S 674 mmHg 45%
    10:00 +21°C° 0,1 mm 4 m/S 674 mmHg 43%
    11:00 +22°C° 0,1 mm 4 m/S 674 mmHg 40%
    12:00 +23°C° 0,1 mm 4 m/S 674 mmHg 38%
    13:00 +23°C° 0,2 mm 4 m/S 674 mmHg 39%
    14:00 +24°C° 0,2 mm 3 m/S 673 mmHg 40%
    15:00 +24°C° 0,2 mm 3 m/S 673 mmHg 41%
    16:00 +21°C° 0,2 mm 3 m/S 672 mmHg 49%
    17:00 +19°C° 0,2 mm 2 m/S 672 mmHg 57%
    18:00 +18°C° 0,2 mm 1 m/S 671 mmHg 66%
    19:00 +16°C° 0,3 mm 1 m/S 671 mmHg 70%
    20:00 +14°C° 0,3 mm 1 m/S 671 mmHg 74%
    21:00 +13°C° 0,3 mm 1 m/S 671 mmHg 78%
    22:00 +13°C° 0,3 mm 1 m/S 671 mmHg 77%
    23:00 +13°C° 0,3 mm 1 m/S 671 mmHg 77%

    4 Mai, Donnerstag

    Zeit Temperatur Niederschläge Wind Luftdruck Luftfeuchtigkeit
    00:00 +13°C° 0,3 mm 1 m/S 670 mmHg 76%
    01:00 +12°C° 0,1 mm 2 m/S 670 mmHg 76%
    02:00 +12°C° 0,1 mm 2 m/S 670 mmHg 75%
    03:00 +12°C° 0,1 mm 2 m/S 670 mmHg 74%
    04:00 +13°C° 0 mm 2 m/S 670 mmHg 72%
    05:00 +14°C° 0 mm 2 m/S 670 mmHg 70%
    06:00 +14°C° 0 mm 1 m/S 671 mmHg 68%
    07:00 +17°C° 0 mm 2 m/S 671 mmHg 59%
    08:00 +20°C° 0 mm 2 m/S 672 mmHg 50%
    09:00 +23°C° 0 mm 2 m/S 673 mmHg 41%
    10:00 +24°C° 0 mm 2 m/S 673 mmHg 38%
    11:00 +25°C° 0 mm 3 m/S 673 mmHg 34%
    12:00 +26°C° 0 mm 3 m/S 673 mmHg 31%
    13:00 +26°C° 0 mm 3 m/S 672 mmHg 32%
    14:00 +26°C° 0 mm 3 m/S 672 mmHg 32%
    15:00 +26°C° 0 mm 3 m/S 672 mmHg 32%
    16:00 +24°C° 0 mm 2 m/S 671 mmHg 41%
    17:00 +21°C° 0 mm 2 m/S 671 mmHg 50%
    18:00 +20°C° 0 mm 1 m/S 670 mmHg 59%
    19:00 +18°C° 0 mm 1 m/S 670 mmHg 65%
    20:00 +16°C° 0 mm 1 m/S 670 mmHg 71%
    21:00 +15°C° 0 mm 1 m/S 670 mmHg 77%
    22:00 +14°C° 0 mm 1 m/S 670 mmHg 77%
    23:00 +14°C° 0 mm 1 m/S 670 mmHg 78%
    Mehr zeigen